Flag Weather past 2 weeks in Görlitz, Saxony, Germany

Now
38 °F

Passing clouds.


Feels Like: 33 °F
Forecast: 37 / 45 °F
Wind: 7 mph from South

Location: Goerlitz

Current Time: Nov 23, 2014 at 3:45:05 AM

Latest Report: Nov 23, 2014 at 3:00 AM


Visibility: 9 mi

Pressure: 30.29 "Hg

Humidity: 84%

Dew point: 33 °F

Location of GörlitzLocation

Historic Weather in Görlitz — Graph

°F

Görlitz temperature yesterday

Maximum temperature yesterday: 42 °F (at 2:00 PM)
Minimum temperature yesterday: 35 °F (at 9:00 PM)
Average temperature yesterday: 39 °F

Past Weeks' High & Low Weather Summary

 TemperatureHumidityPressure
High60 °F (Nov 12, 2:00 PM)100% (Nov 12, 10:00 AM)30.36 "Hg (Nov 12, 10:00 AM)
Low32 °F (Nov 9, 5:00 AM)67% (Nov 12, 2:00 PM)29.59 "Hg (Nov 16, 11:00 AM)
Average45 °F91%29.97 "Hg
* Reported Nov 8 2:00 AM — Nov 23 2:00 AM, Görlitz, Weather by CustomWeather, © 2014

Note: Actual official high and low records may vary slightly from our data, if they occured in-between our weather recording intervals... More about our weather records

Advertising

Görlitz weather history for previous 24 hours

 ConditionsComfort  
Time TempWeatherWind HumidityBarometerVisibility
2:00 AM
Nov 23
38 °FPassing clouds.5 mph88%30.30 "Hg9 mi
1:00 AM34 °FClear.3 mph95%30.32 "Hg7 mi
12:00 AM34 °FPassing clouds.2 mph91%30.32 "Hg9 mi
11:00 PM
Nov 22
36 °FPassing clouds.2 mph86%30.32 "Hg9 mi
10:00 PM37 °FOvercast.3 mph85%30.31 "Hg9 mi
9:00 PM35 °FClear.2 mph86%30.32 "Hg9 mi
8:00 PM36 °FPassing clouds.3 mph84%30.30 "Hg8 mi
7:00 PM36 °FPassing clouds.2 mph84%30.31 "Hg8 mi
6:00 PM36 °FPassing clouds.3 mph82%30.30 "Hg9 mi
5:00 PM38 °FOvercast.2 mph79%30.31 "Hg11 mi
4:00 PM40 °FOvercast.2 mph73%30.30 "Hg12 mi
3:00 PM41 °FOvercast.6 mph71%30.29 "Hg14 mi
2:00 PM42 °FOvercast.6 mph71%30.28 "Hg14 mi
1:00 PM41 °FOvercast.3 mph72%30.30 "Hg16 mi
12:00 PM41 °FOvercast.3 mph75%30.31 "Hg14 mi
11:00 AM40 °FOvercast.3 mph74%30.32 "Hg14 mi
10:00 AM40 °FOvercast.3 mph76%30.33 "Hg12 mi
9:00 AM40 °FOvercast.3 mph75%30.32 "Hg12 mi
8:00 AM39 °FOvercast.3 mph77%30.30 "Hg12 mi
7:00 AM39 °FOvercast.3 mph77%30.30 "Hg12 mi
6:00 AM39 °FOvercast.3 mph78%30.29 "Hg11 mi
5:00 AM39 °FOvercast.2 mph78%30.29 "Hg8 mi
4:00 AM39 °FOvercast.2 mph82%30.30 "Hg8 mi
3:00 AM39 °FOvercast.1 mph81%30.31 "Hg11 mi
Weather by CustomWeather, © 2014

See weather overviewHow to use our weather pages